Change the Weather History Date:

Tuesday, August 27, 2013

  Actual Average Record
Temperature  
Mean Temperature 81 °F -  
Max Temperature 94 °F 85 °F 100 °F (1983)
Min Temperature 69 °F 60 °F 49 °F (1967)
Cooling Degree Days 16    
Growing Degree Days 31 (Base 50)    
Moisture  
Dew Point 65 °F    
Average Humidity 61    
Maximum Humidity 83    
Minimum Humidity 39    
Precipitation  
Precipitation 0.00 in - - ()
Sea Level Pressure  
Sea Level Pressure 29.97 in    
Wind  
Wind Speed 11 mph (SSW)    
Max Wind Speed 15 mph    
Max Gust Speed 21 mph    
Visibility 10 miles    
Events      
Averages and records for this station are not official NWS values.
T = Trace of Precipitation, MM = Missing Value Source: NWS Daily Summary

Daily Weather History Graph

Daily Weather History Graph

Search for Another Location

Airport or City:

Trip Planner

Search our weather history database for the weather conditions in past years. The results will help you decide how hot, cold, wet, or windy it might be!

Date:

Astronomy

Aug. 27, 2013 Rise Set
Actual Time 6:54 AM CDT 8:11 PM CDT
Civil Twilight 6:25 AM CDT 8:40 PM CDT
Nautical Twilight 5:51 AM CDT 9:14 PM CDT
Astronomical Twilight 5:15 AM CDT 9:50 PM CDT
Moon No Moon Rise 1:56 PM CDT (8/27)
Length of Visible Light 14h 14m
Length of Day
13h 17m
Waning Gibbous, 57% of the Moon is Illuminated
Aug 27
Waning Gibbous
Aug 28
Last Quarter
Sep 5
New
Sep 12
First Quarter
Sep 19
Full

Hourly Weather History & Observations

Time (CDT) Temp. Heat Index Dew Point Humidity Pressure Visibility Wind Dir Wind Speed Gust Speed Precip Events Conditions
12:15 AM 77.0 °F - 64.8 °F 66% 29.98 in 10.0 mi SSW 12.7 mph 17.3 mph N/A   Clear
12:35 AM 76.5 °F - 64.6 °F 67% 29.98 in 10.0 mi SSW 11.5 mph - N/A   Clear
12:55 AM 76.1 °F - 64.4 °F 67% 29.98 in 10.0 mi SSW 10.4 mph - N/A   Clear
1:15 AM 75.7 °F - 64.4 °F 68% 29.98 in 10.0 mi SSW 11.5 mph - N/A   Clear
1:35 AM 75.2 °F - 64.4 °F 69% 29.98 in 10.0 mi SSW 11.5 mph - N/A   Clear
1:55 AM 74.5 °F - 64.6 °F 71% 29.98 in 10.0 mi SSW 10.4 mph - N/A   Clear
2:15 AM 74.3 °F - 64.6 °F 72% 29.98 in 10.0 mi SSW 10.4 mph - N/A   Clear
2:35 AM 74.3 °F - 64.4 °F 71% 29.98 in 10.0 mi SSW 10.4 mph - N/A   Clear
2:55 AM 73.9 °F - 64.4 °F 72% 29.98 in 10.0 mi SSW 11.5 mph - N/A   Clear
3:15 AM 73.8 °F - 64.4 °F 72% 29.98 in 10.0 mi SSW 12.7 mph 18.4 mph N/A   Clear
3:35 AM 73.4 °F - 64.6 °F 74% 29.99 in 10.0 mi SSW 11.5 mph 18.4 mph N/A   Clear
3:55 AM 73.0 °F - 64.6 °F 75% 29.99 in 10.0 mi SSW 11.5 mph - N/A   Clear
4:15 AM 72.9 °F - 64.6 °F 75% 29.98 in 10.0 mi SSW 13.8 mph 17.3 mph N/A   Clear
4:35 AM 72.5 °F - 64.4 °F 76% 29.98 in 10.0 mi SSW 13.8 mph 17.3 mph N/A   Clear
4:55 AM 72.5 °F - 64.4 °F 76% 29.98 in 10.0 mi SSW 11.5 mph - N/A   Clear
5:15 AM 71.8 °F - 64.4 °F 77% 29.98 in 10.0 mi SSW 10.4 mph - N/A   Clear
5:35 AM 71.6 °F - 64.4 °F 78% 29.98 in 10.0 mi SSW 9.2 mph 16.1 mph N/A   Clear
5:55 AM 71.1 °F - 64.4 °F 79% 29.99 in 10.0 mi SSW 8.1 mph - N/A   Clear
6:15 AM 70.7 °F - 64.0 °F 79% 29.98 in 10.0 mi SSW 9.2 mph - N/A   Clear
6:35 AM 70.2 °F - 64.0 °F 81% 29.98 in 10.0 mi SSW 9.2 mph - N/A   Clear
6:55 AM 69.8 °F - 64.0 °F 82% 29.98 in 10.0 mi SSW 9.2 mph - N/A   Clear
7:15 AM 69.4 °F - 64.0 °F 83% 29.98 in 10.0 mi SSW 9.2 mph - N/A   Clear
7:35 AM 70.0 °F - 64.4 °F 82% 29.99 in 10.0 mi SSW 10.4 mph - N/A   Clear
7:55 AM 71.1 °F - 64.4 °F 79% 29.99 in 10.0 mi SSW 9.2 mph - N/A   Clear
8:15 AM 72.3 °F - 64.4 °F 76% 29.99 in 10.0 mi SW 10.4 mph - N/A   Clear
8:35 AM 73.6 °F - 64.4 °F 73% 29.99 in 10.0 mi SSW 10.4 mph 18.4 mph N/A   Clear
8:55 AM 74.7 °F - 64.8 °F 71% 29.99 in 10.0 mi SSW 12.7 mph 16.1 mph N/A   Clear
9:15 AM 76.1 °F - 64.8 °F 68% 29.99 in 10.0 mi SSW 11.5 mph 18.4 mph N/A   Clear
9:35 AM 77.5 °F - 65.3 °F 66% 29.99 in 10.0 mi SW 10.4 mph 16.1 mph N/A   Clear
9:55 AM 79.0 °F - 65.1 °F 62% 29.99 in 10.0 mi SW 11.5 mph - N/A   Clear
10:15 AM 80.1 °F 81.8 °F 64.8 °F 59% 29.99 in 10.0 mi SW 11.5 mph 18.4 mph N/A   Clear
10:35 AM 81.5 °F 83.4 °F 65.5 °F 58% 29.99 in 10.0 mi SW 10.4 mph 16.1 mph N/A   Clear
10:55 AM 82.4 °F 84.2 °F 65.3 °F 56% 29.99 in 10.0 mi SW 8.1 mph - N/A   Clear
11:15 AM 83.1 °F 85.0 °F 65.5 °F 55% 29.99 in 10.0 mi SW 10.4 mph - N/A   Clear
11:35 AM 84.2 °F 86.8 °F 66.7 °F 56% 29.99 in 10.0 mi SSW 10.4 mph - N/A   Clear
11:55 AM 85.1 °F 87.7 °F 66.7 °F 54% 29.99 in 10.0 mi SSW 9.2 mph - N/A   Clear
12:15 PM 86.0 °F 88.8 °F 66.9 °F 53% 29.99 in 10.0 mi SW 11.5 mph - N/A   Clear
12:35 PM 86.4 °F 88.7 °F 66.0 °F 51% 29.99 in 10.0 mi SSW 13.8 mph - N/A   Clear
12:55 PM 87.6 °F 90.8 °F 67.6 °F 51% 29.98 in 10.0 mi SSW 12.7 mph - N/A   Clear
1:15 PM 88.7 °F 91.5 °F 66.7 °F 48% 29.98 in 10.0 mi SSW 11.5 mph 17.3 mph N/A   Clear
1:35 PM 89.6 °F 93.4 °F 68.0 °F 49% 29.97 in 10.0 mi SSW 15.0 mph - N/A   Clear
1:55 PM 90.1 °F 94.0 °F 67.8 °F 48% 29.96 in 10.0 mi SSW 15.0 mph - N/A   Clear
2:15 PM 90.9 °F 94.0 °F 66.7 °F 45% 29.96 in 10.0 mi SSW 15.0 mph - N/A   Clear
2:35 PM 91.6 °F 94.3 °F 66.0 °F 43% 29.96 in 10.0 mi SSW 13.8 mph 20.7 mph N/A   Clear
2:55 PM 92.1 °F 95.7 °F 67.3 °F 44% 29.96 in 10.0 mi SSW 11.5 mph - N/A   Clear
3:15 PM 93.0 °F 95.9 °F 66.2 °F 41% 29.95 in 10.0 mi SSW 12.7 mph - N/A   Clear
3:35 PM 92.8 °F 95.2 °F 65.1 °F 40% 29.95 in 10.0 mi SSW 13.8 mph - N/A   Clear
4:15 PM 93.4 °F 96.6 °F 66.2 °F 41% 29.95 in 10.0 mi SSW 9.2 mph - N/A   Clear
4:35 PM 93.6 °F 95.9 °F 65.3 °F 39% 29.95 in 10.0 mi SSW 13.8 mph 18.4 mph N/A   Clear
4:55 PM 93.9 °F 97.5 °F 67.1 °F 41% 29.94 in 10.0 mi SSW 9.2 mph 18.4 mph N/A   Clear
5:15 PM 93.6 °F 97.4 °F 67.1 °F 42% 29.93 in 10.0 mi South 8.1 mph - N/A   Clear
5:35 PM 93.6 °F 95.9 °F 65.3 °F 39% 29.93 in 10.0 mi South 12.7 mph 17.3 mph N/A   Clear
5:55 PM 92.7 °F 94.9 °F 65.3 °F 40% 29.93 in 10.0 mi South 12.7 mph 16.1 mph N/A   Clear
6:15 PM 92.5 °F 94.6 °F 64.9 °F 40% 29.93 in 10.0 mi South 12.7 mph 16.1 mph N/A   Clear
6:35 PM 91.4 °F 92.8 °F 64.0 °F 40% 29.93 in 10.0 mi South 9.2 mph - N/A   Clear
6:55 PM 90.1 °F 92.0 °F 64.6 °F 43% 29.93 in 10.0 mi South 9.2 mph - N/A   Clear
7:15 PM 88.0 °F 91.0 °F 67.5 °F 50% 29.92 in 10.0 mi SSE 6.9 mph - N/A   Clear
7:35 PM 85.6 °F 88.5 °F 67.5 °F 54% 29.92 in 10.0 mi SSE 5.8 mph - N/A   Clear
7:55 PM 84.0 °F 86.5 °F 66.6 °F 56% 29.93 in 10.0 mi South 5.8 mph - N/A   Clear
8:15 PM 82.8 °F 84.7 °F 65.8 °F 56% 29.93 in 10.0 mi South 8.1 mph - N/A   Clear
8:35 PM 81.5 °F 83.4 °F 65.7 °F 58% 29.94 in 10.0 mi South 6.9 mph - N/A   Clear
8:55 PM 80.6 °F 82.4 °F 65.3 °F 59% 29.94 in 10.0 mi South 9.2 mph - N/A   Clear
9:15 PM 80.1 °F 81.8 °F 64.6 °F 59% 29.95 in 10.0 mi South 10.4 mph - N/A   Clear
9:35 PM 79.5 °F - 63.3 °F 58% 29.95 in 10.0 mi South 10.4 mph - N/A   Clear
9:55 PM 80.2 °F 81.3 °F 61.9 °F 53% 29.96 in 10.0 mi South 9.2 mph - N/A   Clear
10:15 PM 78.8 °F - 62.4 °F 57% 29.96 in 10.0 mi South 8.1 mph - N/A   Clear
10:35 PM 77.4 °F - 62.6 °F 60% 29.96 in 7.0 mi South 9.2 mph - N/A   Clear
10:55 PM 77.0 °F - 62.2 °F 60% 29.96 in 10.0 mi South 8.1 mph - N/A   Clear
11:15 PM 75.7 °F - 62.6 °F 64% 29.96 in 10.0 mi South 8.1 mph - N/A   Clear
11:35 PM 75.2 °F - 62.2 °F 64% 29.96 in 10.0 mi South 9.2 mph - N/A   Clear
11:55 PM 73.4 °F - 62.1 °F 68% 29.96 in 10.0 mi SSW 8.1 mph - N/A   Clear